Location: Oroua River
(40.4333°S, 175.4333°E)
Time: 13:32:19
(UTC+00:00)

Okean 2 Rocket - Pass Details

Date: 03 February 2023
Orbit: 615 x 641 km, 82.5° (Epoch: 23 March)

Event Time Altitude Azimuth Distance (km) Brightness Sun altitude
Rises 16:29:51 0° 195° (SSW) 2,955 6.8 -10.8°
Reaches altitude 10° 16:32:10 10° 201° (SSW) 2,043 5.9 -10.4°
Maximum altitude 16:36:28 45° 272° (W) 883 3.5 -9.7°
Drops below altitude 10° 16:40:46 10° 344° (NNW) 2,029 5.3 -9.0°
Sets 16:43:04 0° 350° (N) 2,932 6.1 -8.7°
